Simultaneous Nadir Overpasses (SNOs) Predictions

Prediction of SNOs between GOES-17 and METOP-B Satellite Orbit:

Table of predicted SNOs for the next 14.0 days since TLE Epoch: 8/6/2022
Index Date Time (GOES-17) GOES-17 Lat,Lon METOP-B Lat,Lon Distance(km) Time Diff (sec)
1 08/06/2022 18:24:53 -0.01,-137.31 -0.86,-133.52 431.95 80
2 08/08/2022 06:41:12 0.01,-137.30 -0.17,-138.11 92.75 80
3 08/09/2022 06:23:12 0.01,-137.29 0.96,-133.12 475.65 80
4 08/10/2022 18:39:24 -0.02,-137.28 0.05,-137.68 45.81 80
5 08/13/2022 06:40:23 0.03,-137.25 0.05,-137.29 4.50 80
6 08/15/2022 18:38:34 -0.03,-137.22 -0.11,-136.84 43.23 80
7 08/17/2022 06:54:54 0.03,-137.20 -0.91,-141.44 482.32 80
8 08/18/2022 06:36:54 0.03,-137.19 0.23,-136.45 85.48 80
9 08/19/2022 18:53:04 -0.03,-137.16 0.84,-140.99 437.09 80
